AirNav   Air Wisconsin Up To $57,000 Bonus
 
 1046 users online  

ND38 Rices Airpark
Maddock, North Dakota, USA

GOING TO MADDOCK?


FAA INFORMATION EFFECTIVE 22 APRIL 2021

Location

FAA Identifier: ND38
Lat/Long: 47-57-30.0300N 099-32-11.4770W
47-57.500500N 099-32.191283W
47.9583417,-99.5365214
(estimated)
Elevation: 1575 ft. / 480 m (estimated)
Variation: 09E (1985)
From city: 1 mile SW of MADDOCK, ND
Time zone: UTC -5 (UTC -6 during Standard Time)
Zip code: 58348

Airport Operations

Airport use: Private use. Permission required prior to landing
Activation date: 08/1964
Control tower: no
ARTCC: MINNEAPOLIS CENTER
FSS: GRAND FORKS FLIGHT SERVICE STATION
Attendance: UNATNDD
Wind indicator: no
Segmented circle: no

Airport Communications

WX AWOS-3 at 5H4 (19 nm SW): 118.825 (701-324-2058)
  • MULTICOM 122.9.

Nearby radio navigation aids

VOR radial/distance  VOR name  Freq  Var
DVLr242/26.7DEVILS LAKE VOR/DME111.0007E

Airport Services

Airframe service: NONE
Powerplant service: NONE

Runway Information

Runway NW/SE

Dimensions: 2200 x 100 ft. / 671 x 30 m
Surface: turf
RUNWAY NW  RUNWAY SE
Traffic pattern: leftleft

Airport Ownership and Management from official FAA records

Ownership: Privately-owned
Owner: JOHN D. RICE, JR.
BOX 93
MADDOCK, ND 58348
Phone 701-438-2350
Manager: JOHN D. RICE, JR.
BOX 93
MADDOCK, ND 58348
Phone 701-438-2350

Airport Operational Statistics

Aircraft based on the field: 2
Single engine airplanes: 2
    

Additional Remarks

FOR CD CTC MINNEAPOLIS ARTCC AT 651-463-5588.

Instrument Procedures

There are no published instrument procedures at ND38.

Some nearby airports with instrument procedures:

5H4 - Harvey Municipal Airport (19 nm SW)
KDVL - Devils Lake Regional Airport (27 nm E)
KRUG - Rugby Municipal Airport (32 nm NW)
9D7 - Cando Municipal Airport (34 nm N)
46D - Carrington Municipal Airport (34 nm SE)
 
Loc | Ops | Rwys | IFR | FBO | Links
Com | Nav | Svcs | Stats | Notes

Bismarck Aero Center
AirBoss

 
Area around ND38 (Rices Airpark)
 
Road maps at: MapQuest Bing Google
 
Aerial photo
No photo
 
Sectional chart

 
Airport distance calculator
Flying to Rices Airpark? Find the distance to fly.

From to ND38

Sunrise and sunset
Times for 08-May-2021
 Local
(UTC-5)
 Zulu
(UTC)
Morning civil twilight05:3410:34
Sunrise06:1011:10
Sunset20:5901:59
Evening civil twilight21:3502:35

Current date and time
Zulu (UTC)  08-May-2021 19:44:21
Local (UTC-5)  08-May-2021 14:44:21
 
METAR
K5H4 
19nm SW 
081935Z AUTO 11014G22KT 10SM CLR 11/M06 A3007 RMK AO2 LTG DSNT NE AND SW
KDVL 
27nm E 
081856Z AUTO 07009KT 10SM CLR 12/M07 A3008 RMK AO2 SLP766 T01221067
KRUG 
32nm NW 
081935Z AUTO 11014G20KT 10SM CLR 12/M07 A3006 RMK AO2 LTG DSNT S AND SW
K9D7 
34nm N 
081835Z AUTO 11010G16KT 10SM CLR 13/M08 A3010 RMK AO2 TSNO
K46D 
34nm SE 
081935Z AUTO 12011G19KT 8SM CLR 11/M06 A3006 RMK AO2 LTG DSNT SE AND SW
TAF
KDVL 
27nm E 
081724Z 0818/0918 11011KT P6SM BKN180 FM090100 07008KT P6SM BKN200
NOTAMs
Click for the latest NOTAMs
NOTAMs are issued by the DoD/FAA and will open in a separate window not controlled by AirNav.

 

 
 

Would you like to see your business listed on this page?

 If your business provides an interesting product or service to pilots, flight crews, aircraft, or users of the Rices Airpark, you should consider listing it here.  To start the listing process, click on the button below
 
Add a business
 

Other Pages about Rices Airpark

Update a link
 
Copyright © AirNav, LLC. All rights reserved. Privacy Policy  Contact